When you browse on this site, cookies collect data to enhance your experience and personalize the content and advertising you see.
Visit our Privacy Policy to learn more. By continuing to use the site, you agree to this use of cookies and data.
  • In Österreich
  • Länderverzeichnis
  • Für 7 Tage
  • Wassertemperatur
  • Satellitenkarten
  • Wetterkarte
  • News
  • Widgets
  • user-avatar
    Anmelden

    Stündliche Wetter Town 'n' Country

    Heute, 20 Juli, Samstag

    Zeit Temperatur Niederschläge Wind Luftdruck Luftfeuchtigkeit
    00:00 +28°C° 0 mm 2 m/S 763 mmHg 77%
    01:00 +28°C° 0 mm 2 m/S 762 mmHg 78%
    02:00 +28°C° 0 mm 3 m/S 761 mmHg 79%
    03:00 +28°C° 0 mm 3 m/S 761 mmHg 81%
    04:00 +28°C° 0 mm 3 m/S 761 mmHg 80%
    05:00 +28°C° 0 mm 3 m/S 762 mmHg 80%
    06:00 +28°C° 0 mm 2 m/S 762 mmHg 79%
    07:00 +30°C° 0 mm 3 m/S 762 mmHg 73%
    08:00 +31°C° 0 mm 3 m/S 762 mmHg 66%
    09:00 +34°C° 0 mm 3 m/S 763 mmHg 59%
    10:00 +34°C° 0.2 mm 2 m/S 763 mmHg 56%
    11:00 +35°C° 0.2 mm 2 m/S 763 mmHg 53%
    12:00 +36°C° 0.2 mm 2 m/S 763 mmHg 50%
    13:00 +35°C° 0.4 mm 2 m/S 762 mmHg 51%
    14:00 +35°C° 0.4 mm 2 m/S 762 mmHg 53%
    15:00 +35°C° 0.4 mm 2 m/S 761 mmHg 54%
    16:00 +34°C° 0.2 mm 2 m/S 761 mmHg 56%
    17:00 +34°C° 0.2 mm 2 m/S 761 mmHg 59%
    18:00 +32°C° 0.2 mm 1 m/S 761 mmHg 61%
    19:00 +32°C° 0.1 mm 2 m/S 761 mmHg 64%
    20:00 +31°C° 0.1 mm 2 m/S 762 mmHg 67%
    21:00 +30°C° 0.1 mm 2 m/S 762 mmHg 71%
    22:00 +30°C° 0.2 mm 2 m/S 762 mmHg 72%
    23:00 +29°C° 0.2 mm 2 m/S 762 mmHg 73%

    Morgen, 21 Juli, Sonntag

    Zeit Temperatur Niederschläge Wind Luftdruck Luftfeuchtigkeit
    00:00 +29°C° 0.2 mm 3 m/S 761 mmHg 75%
    01:00 +29°C° 0.1 mm 3 m/S 761 mmHg 77%
    02:00 +28°C° 0.1 mm 3 m/S 761 mmHg 79%
    03:00 +28°C° 0.1 mm 4 m/S 761 mmHg 82%
    04:00 +28°C° 0.1 mm 4 m/S 761 mmHg 82%
    05:00 +28°C° 0.1 mm 4 m/S 761 mmHg 81%
    06:00 +29°C° 0.1 mm 4 m/S 762 mmHg 81%
    07:00 +30°C° 0 mm 4 m/S 762 mmHg 74%
    08:00 +31°C° 0 mm 3 m/S 762 mmHg 66%
    09:00 +34°C° 0 mm 3 m/S 763 mmHg 59%
    10:00 +35°C° 0 mm 3 m/S 762 mmHg 55%
    11:00 +36°C° 0 mm 2 m/S 762 mmHg 50%
    12:00 +36°C° 0 mm 2 m/S 762 mmHg 46%
    13:00 +37°C° 0 mm 2 m/S 762 mmHg 44%
    14:00 +37°C° 0 mm 2 m/S 761 mmHg 43%
    15:00 +38°C° 0 mm 2 m/S 761 mmHg 41%
    16:00 +36°C° 0.6 mm 2 m/S 761 mmHg 49%
    17:00 +35°C° 0.6 mm 3 m/S 761 mmHg 56%
    18:00 +33°C° 0.6 mm 3 m/S 761 mmHg 63%
    19:00 +33°C° 0.2 mm 3 m/S 761 mmHg 66%
    20:00 +31°C° 0.2 mm 2 m/S 762 mmHg 68%
    21:00 +31°C° 0.2 mm 2 m/S 762 mmHg 71%
    22:00 +30°C° 0.3 mm 2 m/S 762 mmHg 72%
    23:00 +30°C° 0.3 mm 2 m/S 762 mmHg 73%

    übermorgen, 22 Juli, Montag

    Zeit Temperatur Niederschläge Wind Luftdruck Luftfeuchtigkeit
    00:00 +30°C° 0.3 mm 2 m/S 761 mmHg 74%
    01:00 +29°C° 0 mm 2 m/S 761 mmHg 75%
    02:00 +29°C° 0 mm 3 m/S 761 mmHg 75%
    03:00 +28°C° 0 mm 3 m/S 761 mmHg 76%
    04:00 +28°C° 0 mm 3 m/S 761 mmHg 76%
    05:00 +28°C° 0 mm 3 m/S 761 mmHg 77%
    06:00 +28°C° 0 mm 3 m/S 761 mmHg 78%
    07:00 +30°C° 0 mm 3 m/S 762 mmHg 72%
    08:00 +31°C° 0 mm 3 m/S 762 mmHg 67%
    09:00 +33°C° 0 mm 3 m/S 762 mmHg 61%
    10:00 +34°C° 0 mm 2 m/S 762 mmHg 56%
    11:00 +35°C° 0 mm 2 m/S 762 mmHg 50%
    12:00 +36°C° 0 mm 2 m/S 762 mmHg 45%
    13:00 +36°C° 0 mm 2 m/S 761 mmHg 45%
    14:00 +36°C° 0 mm 3 m/S 761 mmHg 46%
    15:00 +36°C° 0 mm 4 m/S 760 mmHg 46%
    16:00 +35°C° 0 mm 3 m/S 760 mmHg 52%
    17:00 +34°C° 0 mm 3 m/S 760 mmHg 57%
    18:00 +33°C° 0 mm 3 m/S 760 mmHg 63%
    19:00 +33°C° 0 mm 3 m/S 760 mmHg 65%
    20:00 +31°C° 0 mm 2 m/S 761 mmHg 67%
    21:00 +30°C° 0 mm 2 m/S 761 mmHg 70%
    22:00 +30°C° 0.1 mm 2 m/S 761 mmHg 70%
    23:00 +29°C° 0.1 mm 2 m/S 761 mmHg 70%

    23 Juli, Dienstag

    Zeit Temperatur Niederschläge Wind Luftdruck Luftfeuchtigkeit
    00:00 +29°C° 0.1 mm 1 m/S 761 mmHg 70%
    01:00 +29°C° 0.3 mm 1 m/S 760 mmHg 71%
    02:00 +29°C° 0.3 mm 1 m/S 760 mmHg 72%
    03:00 +28°C° 0.3 mm 1 m/S 759 mmHg 73%
    04:00 +28°C° 0 mm 1 m/S 760 mmHg 74%
    05:00 +28°C° 0 mm 1 m/S 760 mmHg 74%
    06:00 +28°C° 0 mm 2 m/S 760 mmHg 75%
    07:00 +30°C° 0 mm 1 m/S 760 mmHg 68%
    08:00 +32°C° 0 mm 1 m/S 761 mmHg 61%
    09:00 +31°C° 0 mm 0 m/S 761 mmHg 55%
    10:00 +34°C° 0 mm 1 m/S 761 mmHg 51%
    11:00 +36°C° 0 mm 2 m/S 760 mmHg 47%
    12:00 +37°C° 0 mm 4 m/S 760 mmHg 44%
    13:00 +36°C° 0 mm 4 m/S 760 mmHg 46%
    14:00 +36°C° 0 mm 4 m/S 759 mmHg 48%
    15:00 +36°C° 0 mm 5 m/S 759 mmHg 49%
    16:00 +35°C° 0 mm 5 m/S 759 mmHg 53%
    17:00 +34°C° 0 mm 5 m/S 759 mmHg 57%
    18:00 +33°C° 0 mm 5 m/S 759 mmHg 61%
    19:00 +32°C° 0 mm 4 m/S 759 mmHg 63%
    20:00 +32°C° 0 mm 4 m/S 760 mmHg 65%
    21:00 +30°C° 0 mm 4 m/S 760 mmHg 67%
    22:00 +30°C° 0 mm 4 m/S 760 mmHg 69%
    23:00 +30°C° 0 mm 3 m/S 759 mmHg 71%

    24 Juli, Mittwoch

    Zeit Temperatur Niederschläge Wind Luftdruck Luftfeuchtigkeit
    00:00 +30°C° 0 mm 3 m/S 759 mmHg 73%
    01:00 +29°C° 0 mm 3 m/S 759 mmHg 73%
    02:00 +29°C° 0 mm 3 m/S 759 mmHg 73%
    03:00 +29°C° 0 mm 2 m/S 758 mmHg 74%
    04:00 +29°C° 0 mm 2 m/S 759 mmHg 73%
    05:00 +30°C° 0 mm 2 m/S 759 mmHg 72%
    06:00 +30°C° 0 mm 2 m/S 760 mmHg 71%
    07:00 +31°C° 0 mm 3 m/S 760 mmHg 67%
    08:00 +33°C° 0 mm 4 m/S 760 mmHg 62%
    09:00 +34°C° 0 mm 5 m/S 760 mmHg 57%
    10:00 +34°C° 0.3 mm 6 m/S 760 mmHg 56%
    11:00 +34°C° 0.3 mm 6 m/S 760 mmHg 56%
    12:00 +35°C° 0.3 mm 7 m/S 760 mmHg 55%
    13:00 +34°C° 0.4 mm 6 m/S 759 mmHg 56%
    14:00 +34°C° 0.4 mm 6 m/S 759 mmHg 56%
    15:00 +34°C° 0.4 mm 6 m/S 759 mmHg 57%
    16:00 +33°C° 0 mm 5 m/S 759 mmHg 60%
    17:00 +33°C° 0 mm 5 m/S 759 mmHg 62%
    18:00 +32°C° 0 mm 4 m/S 759 mmHg 64%
    19:00 +32°C° 0 mm 4 m/S 759 mmHg 66%
    20:00 +30°C° 0 mm 3 m/S 760 mmHg 67%
    21:00 +30°C° 0 mm 3 m/S 760 mmHg 69%
    22:00 +30°C° 0.2 mm 3 m/S 760 mmHg 70%
    23:00 +29°C° 0.2 mm 3 m/S 760 mmHg 71%

    25 Juli, Donnerstag

    Zeit Temperatur Niederschläge Wind Luftdruck Luftfeuchtigkeit
    00:00 +29°C° 0.2 mm 3 m/S 760 mmHg 71%
    01:00 +29°C° 0 mm 3 m/S 760 mmHg 72%
    02:00 +29°C° 0 mm 2 m/S 760 mmHg 73%
    03:00 +29°C° 0 mm 2 m/S 760 mmHg 73%
    04:00 +29°C° 0 mm 2 m/S 760 mmHg 73%
    05:00 +29°C° 0 mm 2 m/S 760 mmHg 72%
    06:00 +30°C° 0 mm 2 m/S 761 mmHg 71%
    07:00 +31°C° 0.1 mm 2 m/S 761 mmHg 67%
    08:00 +33°C° 0.1 mm 3 m/S 761 mmHg 62%
    09:00 +34°C° 0.1 mm 3 m/S 762 mmHg 58%
    10:00 +34°C° 0.7 mm 3 m/S 761 mmHg 58%
    11:00 +34°C° 0.7 mm 4 m/S 761 mmHg 58%
    12:00 +34°C° 0.7 mm 4 m/S 761 mmHg 58%
    13:00 +34°C° 0.2 mm 5 m/S 761 mmHg 57%
    14:00 +34°C° 0.2 mm 5 m/S 761 mmHg 57%
    15:00 +34°C° 0.2 mm 5 m/S 760 mmHg 57%
    16:00 +34°C° 0.3 mm 4 m/S 761 mmHg 61%
    17:00 +33°C° 0.3 mm 4 m/S 761 mmHg 64%
    18:00 +31°C° 0.3 mm 3 m/S 761 mmHg 67%
    19:00 +31°C° 0.1 mm 3 m/S 762 mmHg 69%
    20:00 +30°C° 0.1 mm 2 m/S 762 mmHg 70%
    21:00 +30°C° 0.1 mm 2 m/S 762 mmHg 72%
    22:00 +30°C° 0 mm 2 m/S 762 mmHg 73%
    23:00 +29°C° 0 mm 2 m/S 762 mmHg 74%
    Mehr zeigen